Weather History for Cincinnati, OH

Change the Weather History Date:

Friday, July 12, 2013

  Actual Average Record
Temperature  
Mean Temperature 68 °F -  
Max Temperature 80 °F 86 °F 95 °F (1983)
Min Temperature 57 °F 66 °F 54 °F (1963)
Cooling Degree Days 4    
Growing Degree Days 18 (Base 50)    
Moisture  
Dew Point 59 °F    
Average Humidity 71    
Maximum Humidity 100    
Minimum Humidity 45    
Precipitation  
Precipitation 0.00 in - - ()
Sea Level Pressure  
Sea Level Pressure 30.06 in    
Wind  
Wind Speed 4 mph (NE)    
Max Wind Speed 15 mph    
Max Gust Speed 22 mph    
Visibility 10 miles    
Events      
Averages and records for this station are not official NWS values.
T = Trace of Precipitation, MM = Missing Value Source: NWS Daily Summary

Daily Weather History Graph

Daily Weather History Graph

Search for Another Location

Airport:

Trip Planner

Search our weather history database for the weather conditions in past years. The results will help you decide how hot, cold, wet, or windy it might be!

Date:

Astronomy

Jul. 12, 2013 Rise Set
Actual Time 6:22 AM EDT 9:04 PM EDT
Civil Twilight 5:50 AM EDT 9:35 PM EDT
Nautical Twilight 5:11 AM EDT 10:14 PM EDT
Astronomical Twilight 4:26 AM EDT 10:59 PM EDT
Moon 10:35 AM EDT (7/12) 11:16 PM EDT (7/12)
Length of Visible Light 15h 45m
Length of Day
14h 42m
Waxing Crescent, 17% of the Moon is Illuminated
Jul 12
Waxing Crescent
Jul 15
First Quarter
Jul 22
Full
Jul 29
Last Quarter
Aug 6
New

Hourly Weather History & Observations

Time (EDT) Temp. Heat Index Dew Point Humidity Pressure Visibility Wind Dir Wind Speed Gust Speed Precip Events Conditions
12:53 AM 62.1 °F - 60.1 °F 93% 30.04 in 10.0 mi Calm Calm - N/A   Clear
1:53 AM 60.1 °F - 59.0 °F 96% 30.04 in 10.0 mi Calm Calm - N/A   Clear
2:53 AM 60.1 °F - 59.0 °F 96% 30.04 in 9.0 mi Calm Calm - N/A   Clear
3:53 AM 57.9 °F - 57.9 °F 100% 30.04 in 9.0 mi Calm Calm - N/A   Clear
4:53 AM 57.9 °F - 57.9 °F 100% 30.05 in 8.0 mi Calm Calm - N/A   Clear
5:53 AM 57.0 °F - 57.0 °F 100% 30.07 in 8.0 mi Calm Calm - N/A   Clear
6:53 AM 57.9 °F - 57.0 °F 97% 30.09 in 7.0 mi Calm Calm - N/A   Clear
7:53 AM 63.0 °F - 60.1 °F 90% 30.10 in 10.0 mi Calm Calm - N/A   Clear
8:53 AM 68.0 °F - 60.1 °F 76% 30.10 in 10.0 mi ENE 4.6 mph - N/A   Clear
9:53 AM 72.0 °F - 62.1 °F 71% 30.10 in 10.0 mi NE 6.9 mph - N/A   Partly Cloudy
10:53 AM 73.9 °F - 57.9 °F 57% 30.10 in 10.0 mi NE 15.0 mph 21.9 mph N/A   Partly Cloudy
11:53 AM 75.0 °F - 55.0 °F 50% 30.10 in 10.0 mi NNE 15.0 mph - N/A   Scattered Clouds
12:53 PM 77.0 °F - 55.9 °F 48% 30.08 in 10.0 mi NNE 12.7 mph 18.4 mph N/A   Scattered Clouds
1:53 PM 78.1 °F - 57.0 °F 48% 30.07 in 10.0 mi NE 10.4 mph 19.6 mph N/A   Scattered Clouds
2:53 PM 79.0 °F - 57.0 °F 47% 30.07 in 10.0 mi ENE 9.2 mph - N/A   Scattered Clouds
3:53 PM 79.0 °F - 55.9 °F 45% 30.06 in 10.0 mi Variable 5.8 mph - N/A   Scattered Clouds
4:53 PM 80.1 °F 80.6 °F 57.9 °F 47% 30.05 in 10.0 mi NE 8.1 mph - N/A   Scattered Clouds
5:53 PM 78.1 °F - 59.0 °F 52% 30.04 in 10.0 mi ENE 9.2 mph - N/A   Mostly Cloudy
6:53 PM 79.0 °F - 57.9 °F 48% 30.04 in 10.0 mi NE 10.4 mph - N/A   Clear
7:53 PM 77.0 °F - 57.0 °F 50% 30.04 in 10.0 mi NE 6.9 mph - N/A   Clear
8:53 PM 72.0 °F - 60.1 °F 66% 30.04 in 10.0 mi ENE 3.5 mph - N/A   Partly Cloudy
9:53 PM 66.0 °F - 62.1 °F 87% 30.05 in 10.0 mi Calm Calm - N/A   Clear
10:53 PM 71.1 °F - 61.0 °F 70% 30.06 in 10.0 mi NE 3.5 mph - N/A   Clear
11:53 PM 69.1 °F - 62.1 °F 78% 30.06 in 10.0 mi NE 4.6 mph - N/A   Clear